Location: Dötzum
(52.0808°N, 9.8063°E)
Time: 05:38:00
(UTC+00:00)

Cosmos 1455 - Pass Details

Date: 27 May 2022
Orbit: 492 x 515 km, 82.5° (Epoch: 26 June)

Event Time Altitude Azimuth Distance (km) Brightness Sun altitude
Rises 02:00:18 0° 338° (NNW) 2,588 6.2 -8.5°
Reaches altitude 10° 02:02:43 10° 324° (NW) 1,699 5.0 -8.3°
Maximum altitude 02:05:41 23° 271° (W) 1,092 3.5 -8.0°
Enters shadow 02:08:35 10° 218° (SW) 1,673 4.1 -7.7°
